Temp
47 47 46 46 47 47 47 47 48 48 48 48 47 48 48 48 48 48 48 48 48 48 49 49 49 50 50 49 50 50 50 49 49 49 49 48 48 48 49 49 49 49 49 49 50 50 50 50 50 50 51 51 51 51 51 51 52 53 53 54 54 55 55 55 55 55 55 55 54
47 47 47 47 47 47 47 47 47 47 47 47 47 48 48 48 48 48 48 49 49 49 49 49 49 49 49 49 49 49 49 49 48 48 47 47 47 47 48 49 49 49 49 49 50 50 50 50 50 50 51 51 51 51 52 52 53 53 53 54 54 55 56 56 56 55 55 55 54
47 47 47 47 46 46 46 46 46 46 46 47 47 48 48 48 48 48 49 49 49 49 49 49 49 49 49 49 49 49 49 48 48 47 46 46 46 46 47 48 49 50 50 50 50 50 50 50 50 50 51 51 51 51 52 53 53 53 53 54 55 56 56 56 55 55 54 54 53
47 47 47 47 46 46 46 47 47 47 47 47 47 48 48 48 48 49 49 49 49 49 49 49 49 49 49 49 49 49 49 49 48 47 47 47 47 47 47 48 49 49 49 49 49 49 49 49 50 50 50 51 51 51 52 52 53 53 54 55 56 56 55 55 54 54 54 53 53
47 47 47 47 47 47 47 47 47 47 47 47 47 47 47 48 48 48 48 48 48 48 48 48 48 48 49 49 49 49 49 49 49 49 48 48 48 48 48 49 49 49 49 49 49 49 49 49 50 50 50 51 51 52 52 52 52 53 54 56 56 55 54 54 54 53 53 53 53
48 48 48 47 47 48 48 48 48 48 47 47 47 47 47 47 47 48 48 48 48 48 48 48 49 49 49 49 49 49 49 49 49 49 49 48 49 49 49 49 49 49 49 49 49 49 50 50 50 51 51 52 52 52 52 52 52 53 54 55 55 54 54 53 53 53 53 53 52
48 48 48 48 48 48 48 48 48 48 48 47 47 47 47 47 47 48 48 48 48 48 48 49 49 49 49 49 49 49 50 50 50 49 49 49 49 49 49 49 49 49 50 50 50 50 50 50 51 51 52 52 52 52 52 52 52 53 54 54 54 53 53 52 53 53 52 51 50
49 49 48 48 48 48 48 49 48 48 48 48 48 47 47 47 47 48 48 48 49 49 49 49 49 49 49 49 49 50 50 50 50 50 50 50 49 49 49 50 50 50 51 51 50 50 50 51 51 52 52 52 52 52 52 52 53 54 54 53 53 53 53 53 53 52 51 50 49
49 49 49 49 49 49 49 49 49 49 48 48 48 48 48 48 48 48 48 48 49 49 49 49 49 49 49 50 50 50 50 50 50 50 50 50 50 50 50 50 50 50 50 50 50 50 51 51 52 52 52 52 52 52 52 53 53 53 53 53 52 52 52 52 52 51 50 49 48
49 49 49 49 49 50 50 50 49 49 49 49 49 49 49 49 49 49 49 49 49 49 49 49 49 49 49 50 50 50 51 51 50 51 51 51 51 50 50 50 50 50 50 51 51 51 51 51 51 51 52 52 52 52 53 53 53 53 52 52 52 51 51 50 50 49 49 48 48
50 50 50 50 50 50 50 50 50 50 50 49 49 49 49 50 50 49 49 49 49 49 49 49 49 49 49 50 50 50 50 51 51 51 51 51 51 50 49 49 49 50 51 52 52 51 51 51 51 51 52 52 52 53 53 53 53 52 52 51 51 50 49 49 49 48 48 47 47
50 50 50 50 50 50 50 50 50 50 50 50 50 50 50 50 50 50 50 50 49 49 49 49 49 49 49 49 50 50 51 51 51 51 51 51 50 49 48 48 49 50 51 51 51 51 51 51 51 51 52 52 53 53 53 53 52 51 51 50 49 49 48 48 48 47 47 46 45
50 50 50 50 50 50 50 50 50 50 50 50 50 51 51 51 51 52 51 51 50 50 49 48 48 49 49 50 50 51 51 52 51 51 51 51 49 48 48 49 50 51 51 51 51 52 52 52 52 52 52 53 53 53 52 52 51 50 49 49 48 47 47 46 46 46 46 45 44
50 50 50 50 50 50 50 50 50 50 50 50 51 51 51 51 52 52 52 52 51 50 49 48 49 49 50 50 51 51 51 51 51 51 51 51 48 48 48 49 50 51 51 51 52 52 52 52 52 52 52 51 51 51 51 50 49 49 48 47 47 46 46 45 45 45 44 44 43
50 50 50 50 50 49 49 49 50 50 50 50 50 50 51 51 51 52 52 52 52 51 50 49 50 50 51 51 52 52 51 51 51 51 51 50 49 49 49 50 51 51 51 51 52 52 52 52 51 51 50 49 49 48 48 48 47 47 46 46 45 45 45 44 44 44 43 42 42
49 49 49 49 49 49 49 49 49 49 49 49 50 50 50 50 51 51 51 51 52 52 52 51 51 52 52 52 52 52 51 51 51 51 51 50 49 49 50 50 51 51 51 51 50 50 50 49 49 48 48 47 47 46 46 46 46 45 45 45 44 44 44 43 43 42 42 42 41
48 48 49 49 49 49 48 48 49 49 49 49 49 49 49 50 50 50 50 51 51 51 52 52 52 52 52 52 52 52 51 51 51 50 50 49 49 49 49 50 50 49 49 49 48 48 47 47 47 47 47 46 45 45 45 44 44 44 43 43 43 43 43 43 42 42 41 41 41
48 48 48 48 48 48 48 48 48 48 48 48 49 49 49 49 49 49 50 50 50 50 50 51 51 52 52 51 51 51 51 50 49 49 49 48 48 48 48 48 48 48 48 47 47 46 46 46 46 46 45 45 44 44 44 43 43 42 42 42 42 42 42 42 41 41 41 41 40
47 47 48 48 48 48 48 48 48 48 48 48 48 48 48 49 49 49 49 49 49 49 49 50 50 50 51 50 50 50 50 49 49 48 48 48 47 47 47 47 47 47 47 46 46 46 46 45 45 45 44 44 44 43 43 43 42 42 42 41 41 41 41 41 41 41 41 41 40
47 47 47 47 47 47 48 48 48 48 48 48 48 48 48 48 48 48 48 48 48 49 49 49 49 49 49 49 49 49 49 49 48 48 48 47 47 47 46 46 46 46 46 46 45 45 45 45 45 44 44 44 43 43 42 42 42 42 42 41 41 41 41 41 41 41 41 41 41
46 47 47 47 47 47 47 47 47 47 47 47 47 47 47 48 47 47 47 48 48 48 48 48 48 48 48 48 48 48 48 48 48 48 48 47 47 47 46 46 46 45 45 45 45 45 45 44 44 44 44 43 43 43 42 42 42 42 42 42 42 42 42 42 42 42 42 41 41
46 47 47 47 47 47 47 47 47 47 47 47 47 47 47 47 47 47 47 47 47 47 47 47 47 47 47 48 48 48 48 48 48 48 47 47 47 47 47 46 46 45 45 45 44 44 44 44 44 44 43 43 43 43 43 43 42 42 42 42 42 42 42 42 42 42 42 42 42
46 47 47 47 47 47 47 47 47 47 46 46 46 46 46 46 46 46 46 46 46 46 46 46 46 46 46 47 47 47 47 47 47 47 47 47 47 47 47 46 46 45 45 44 44 44 43 43 43 43 43 43 42 42 43 43 43 42 42 42 42 42 42 42 42 43 43 43 43
46 46 47 47 47 47 47 47 46 46 46 46 46 46 46 46 46 46 46 46 46 45 45 45 45 46 46 46 46 46 46 46 46 46 46 47 46 46 46 46 46 45 45 45 45 44 44 43 42 42 42 42 42 42 42 42 42 42 42 42 42 42 42 42 42 43 43 43 43
46 46 46 46 46 46 46 46 46 46 45 45 46 46 45 45 45 45 45 45 45 45 45 45 45 45 45 45 45 45 45 45 45 45 45 46 46 46 46 45 45 45 45 46 46 46 46 44 43 42 42 42 41 41 41 41 41 41 41 41 41 41 41 41 41 41 42 43 43
46 46 46 46 46 46 46 45 45 45 45 45 45 45 45 45 45 45 44 44 44 45 45 45 45 45 45 44 44 44 44 44 44 44 44 45 45 45 45 45 45 45 45 46 47 47 46 46 44 43 41 41 41 40 40 40 40 40 40 40 40 40 39 39 39 40 40 41 41
46 46 46 46 46 45 45 45 45 45 45 45 45 45 45 45 45 44 44 44 44 44 44 44 44 44 44 44 44 44 44 44 44 44 44 44 44 44 44 44 44 45 45 46 47 47 46 45 45 43 42 40 40 39 39 39 39 39 39 39 39 39 39 38 38 39 39 39 40
46 46 46 45 45 45 45 45 45 45 44 44 44 44 45 44 44 44 44 44 44 44 44 44 44 44 44 44 43 43 43 44 44 44 44 44 44 44 44 44 44 45 46 47 46 46 46 45 44 44 42 40 39 39 39 38 38 38 38 38 38 38 38 38 38 38 38 38 39
46 45 45 45 45 45 45 44 44 44 44 44 44 44 44 44 44 44 44 43 43 43 43 43 43 43 43 43 43 43 43 43 43 43 43 43 43 43 43 43 44 45 46 47 46 46 45 45 44 44 43 41 39 39 38 38 38 38 38 38 37 37 37 37 37 37 37 37 37
46 45 45 45 44 44 44 44 44 44 44 44 44 44 44 43 43 43 43 43 43 43 43 43 43 43 42 42 43 43 43 43 43 43 43 43 43 43 43 43 43 44 45 46 46 45 45 45 44 44 43 42 40 39 38 38 38 38 37 37 37 37 37 37 37 37 37 36 36
45 45 45 45 44 44 44 44 44 44 44 44 44 43 43 43 43 43 43 42 43 43 43 43 43 42 42 42 42 42 42 42 43 43 43 42 43 42 42 43 43 44 45 46 45 45 45 44 44 44 43 42 40 39 38 38 38 38 37 37 37 37 37 37 37 36 36 36 36
45 45 45 44 44 44 44 44 44 44 44 44 43 43 43 42 42 42 43 43 43 43 43 43 42 42 42 42 42 42 42 42 42 42 42 42 42 42 42 42 42 43 44 45 45 45 44 44 44 43 43 42 41 39 38 38 38 38 37 37 37 37 37 37 37 37 37 37 36
45 45 45 44 44 44 44 44 44 44 44 43 43 43 42 42 42 42 43 43 42 42 42 42 42 41 41 41 42 42 42 42 42 42 42 42 42 42 42 42 42 43 44 45 45 45 44 44 44 43 43 42 40 39 39 38 38 38 38 38 38 38 38 38 38 38 38 38 38
45 45 45 44 44 44 44 44 44 44 43 43 43 43 42 42 42 42 42 42 42 42 42 42 42 41 41 42 41 41 41 42 42 42 42 42 42 42 42 42 42 44 45 45 45 44 44 44 44 43 43 42 40 39 38 38 38 38 38 38 38 39 39 39 39 39 39 40 40
45 45 44 44 44 44 44 44 44 44 43 43 42 42 42 42 42 42 42 42 42 42 42 42 42 42 42 42 42 42 42 41 41 41 42 42 42 42 41 41 42 44 45 45 45 45 44 44 44 44 43 41 40 39 39 39 39 39 39 39 39 39 39 39 39 40 40 41 40
45 45 44 44 44 44 44 44 44 43 43 42 42 42 42 42 42 42 42 42 42 42 41 41 41 41 41 41 41 42 42 41 41 41 42 42 41 41 41 41 42 43 45 45 45 45 45 45 44 44 43 41 40 39 39 39 39 39 39 39 39 40 40 40 40 41 41 41 41
45 45 44 44 44 44 44 44 43 43 43 42 42 42 42 42 42 42 42 42 41 41 41 41 41 41 41 41 41 41 41 42 42 41 41 42 41 41 41 41 41 43 44 45 45 45 45 45 44 44 42 40 39 39 40 39 39 39 39 39 39 40 40 41 41 42 42 43 42
45 45 45 44 44 44 44 44 43 43 43 42 42 42 42 42 42 42 42 42 41 41 40 41 40 40 41 41 41 41 41 42 42 42 41 41 41 41 41 41 41 42 44 45 45 45 45 45 45 44 42 40 39 39 39 39 39 39 39 39 39 39 40 41 42 42 43 44 44
45 45 45 44 44 44 44 44 43 43 43 43 43 43 43 42 42 42 42 42 42 41 41 41 41 41 41 42 41 41 41 42 42 42 42 41 42 42 42 41 41 42 43 45 45 45 45 45 45 44 43 40 39 39 39 38 38 38 38 38 38 39 39 40 41 42 43 44 45
45 45 45 44 44 44 44 43 43 43 43 43 43 43 43 43 43 43 43 43 42 42 41 41 41 41 42 42 41 41 41 41 42 42 42 42 42 43 43 41 41 42 43 45 45 45 45 45 45 44 43 40 39 39 39 38 38 37 37 37 38 38 38 39 40 41 41 42 44
45 45 45 45 44 44 44 43 43 43 43 43 43 43 43 43 43 43 43 43 42 42 42 41 41 42 42 42 41 41 41 41 41 42 42 42 42 43 42 42 42 42 43 44 46 46 46 46 45 45 43 40 39 39 38 38 37 37 37 37 37 37 38 38 39 40 40 41 42
MSLP
1013.11 1012.99 1012.87 1012.75 1012.59 1012.43 1012.23 1011.99 1011.71 1011.55 1011.39 1011.19 1010.99 1010.87 1010.71 1010.59 1010.43 1010.23 1010.07 1009.95 1009.79 1009.59 1009.43 1009.23 1009.11 1008.99 1008.83 1008.75 1008.67 1008.55 1008.39 1008.23 1008.15 1008.03 1007.99 1007.95 1007.87 1007.75 1007.63 1007.51 1007.43 1007.35 1007.27 1007.15 1007.07 1006.99 1006.87 1006.79 1006.71 1006.59 1006.47 1006.35 1006.27 1006.19 1006.15 1006.03 1005.99 1005.87 1005.79 1005.67 1005.59 1005.43 1005.31 1005.27 1005.23 1005.27 1005.31 1005.39 1005.47
1012.99 1012.87 1012.71 1012.59 1012.47 1012.31 1012.15 1011.91 1011.67 1011.47 1011.35 1011.19 1011.03 1010.87 1010.67 1010.47 1010.31 1010.15 1009.99 1009.83 1009.71 1009.55 1009.39 1009.23 1009.07 1008.95 1008.87 1008.75 1008.67 1008.55 1008.39 1008.27 1008.15 1008.03 1007.99 1007.87 1007.79 1007.71 1007.59 1007.47 1007.39 1007.27 1007.19 1007.07 1006.99 1006.87 1006.75 1006.63 1006.55 1006.43 1006.31 1006.19 1006.07 1005.99 1005.91 1005.83 1005.75 1005.71 1005.59 1005.43 1005.27 1005.19 1005.11 1005.07 1005.11 1005.15 1005.27 1005.35 1005.43
1012.91 1012.75 1012.63 1012.51 1012.39 1012.27 1012.07 1011.79 1011.59 1011.43 1011.27 1011.15 1010.99 1010.79 1010.59 1010.43 1010.23 1010.03 1009.87 1009.71 1009.59 1009.51 1009.35 1009.19 1009.03 1008.87 1008.79 1008.71 1008.59 1008.47 1008.35 1008.19 1008.11 1007.99 1007.91 1007.83 1007.71 1007.63 1007.55 1007.43 1007.31 1007.23 1007.11 1006.95 1006.87 1006.71 1006.63 1006.55 1006.43 1006.31 1006.15 1005.99 1005.95 1005.87 1005.75 1005.67 1005.63 1005.59 1005.43 1005.19 1004.99 1004.95 1004.91 1004.95 1004.99 1005.11 1005.23 1005.35 1005.43
1012.83 1012.71 1012.55 1012.43 1012.31 1012.15 1011.99 1011.71 1011.55 1011.35 1011.15 1011.03 1010.87 1010.75 1010.59 1010.39 1010.19 1009.99 1009.83 1009.71 1009.59 1009.43 1009.27 1009.15 1008.99 1008.87 1008.71 1008.59 1008.43 1008.31 1008.19 1008.07 1007.99 1007.87 1007.79 1007.71 1007.59 1007.51 1007.43 1007.31 1007.19 1007.11 1006.99 1006.83 1006.71 1006.59 1006.43 1006.35 1006.27 1006.15 1005.99 1005.87 1005.83 1005.71 1005.63 1005.59 1005.55 1005.43 1005.23 1004.91 1004.79 1004.75 1004.87 1004.99 1005.07 1005.15 1005.27 1005.43 1005.51
1012.75 1012.63 1012.51 1012.35 1012.19 1012.03 1011.87 1011.67 1011.47 1011.27 1011.11 1010.99 1010.83 1010.63 1010.47 1010.31 1010.15 1009.95 1009.79 1009.59 1009.47 1009.35 1009.23 1009.11 1008.99 1008.83 1008.67 1008.51 1008.35 1008.15 1007.99 1007.87 1007.79 1007.71 1007.59 1007.51 1007.43 1007.35 1007.27 1007.15 1007.07 1006.95 1006.83 1006.71 1006.55 1006.39 1006.31 1006.19 1006.15 1005.99 1005.87 1005.79 1005.71 1005.63 1005.59 1005.59 1005.55 1005.43 1005.15 1004.75 1004.71 1004.79 1004.91 1005.11 1005.19 1005.27 1005.35 1005.55 1005.63
1012.71 1012.59 1012.43 1012.31 1012.15 1011.91 1011.71 1011.59 1011.39 1011.19 1011.03 1010.87 1010.71 1010.59 1010.39 1010.23 1010.03 1009.87 1009.67 1009.51 1009.35 1009.27 1009.15 1009.07 1008.91 1008.75 1008.59 1008.43 1008.23 1008.07 1007.87 1007.71 1007.59 1007.51 1007.43 1007.35 1007.27 1007.15 1007.07 1006.99 1006.87 1006.79 1006.67 1006.55 1006.35 1006.23 1006.15 1006.07 1005.95 1005.87 1005.75 1005.71 1005.59 1005.55 1005.55 1005.59 1005.55 1005.31 1004.99 1004.71 1004.83 1004.99 1005.11 1005.27 1005.39 1005.47 1005.59 1005.63 1005.75
1012.75 1012.59 1012.39 1012.19 1011.99 1011.83 1011.63 1011.43 1011.27 1011.07 1010.91 1010.71 1010.59 1010.43 1010.19 1009.99 1009.87 1009.71 1009.55 1009.43 1009.27 1009.15 1009.03 1008.95 1008.83 1008.71 1008.55 1008.39 1008.19 1007.99 1007.83 1007.63 1007.47 1007.35 1007.27 1007.19 1007.11 1006.99 1006.91 1006.79 1006.71 1006.59 1006.43 1006.31 1006.23 1006.11 1005.99 1005.91 1005.83 1005.75 1005.67 1005.63 1005.59 1005.59 1005.59 1005.59 1005.43 1005.15 1004.87 1004.83 1005.03 1005.19 1005.35 1005.51 1005.59 1005.63 1005.71 1005.83 1005.95
1012.71 1012.55 1012.35 1012.15 1011.95 1011.71 1011.51 1011.35 1011.15 1010.95 1010.75 1010.59 1010.39 1010.19 1009.99 1009.79 1009.63 1009.47 1009.35 1009.23 1009.15 1008.99 1008.87 1008.79 1008.71 1008.59 1008.47 1008.35 1008.15 1007.99 1007.79 1007.59 1007.43 1007.31 1007.15 1007.03 1006.95 1006.87 1006.75 1006.63 1006.55 1006.43 1006.31 1006.15 1006.07 1005.99 1005.91 1005.87 1005.75 1005.67 1005.59 1005.59 1005.59 1005.59 1005.55 1005.43 1005.27 1004.95 1004.79 1004.99 1005.27 1005.51 1005.59 1005.71 1005.75 1005.79 1005.87 1005.99 1006.11
1012.71 1012.47 1012.31 1012.11 1011.87 1011.67 1011.47 1011.27 1011.07 1010.87 1010.67 1010.43 1010.27 1010.07 1009.87 1009.59 1009.43 1009.27 1009.19 1009.07 1008.95 1008.87 1008.75 1008.67 1008.59 1008.51 1008.43 1008.31 1008.15 1007.91 1007.75 1007.59 1007.43 1007.27 1007.07 1006.87 1006.79 1006.71 1006.59 1006.51 1006.43 1006.31 1006.15 1006.11 1005.99 1005.95 1005.87 1005.83 1005.71 1005.71 1005.63 1005.59 1005.59 1005.59 1005.59 1005.43 1005.23 1004.99 1004.91 1005.19 1005.47 1005.67 1005.75 1005.79 1005.87 1005.99 1006.11 1006.19 1006.31
1012.71 1012.51 1012.31 1012.07 1011.83 1011.63 1011.43 1011.15 1010.95 1010.75 1010.59 1010.39 1010.15 1009.87 1009.71 1009.47 1009.27 1009.11 1008.99 1008.91 1008.79 1008.71 1008.63 1008.55 1008.47 1008.43 1008.35 1008.19 1008.03 1007.87 1007.71 1007.63 1007.47 1007.27 1007.07 1006.83 1006.67 1006.59 1006.51 1006.43 1006.39 1006.31 1006.19 1006.11 1006.03 1005.99 1005.87 1005.83 1005.75 1005.71 1005.67 1005.63 1005.63 1005.59 1005.55 1005.43 1005.39 1005.27 1005.23 1005.39 1005.59 1005.71 1005.87 1005.99 1006.11 1006.19 1006.31 1006.39 1006.47
1012.87 1012.59 1012.35 1012.11 1011.87 1011.63 1011.39 1011.15 1010.91 1010.71 1010.47 1010.27 1010.03 1009.83 1009.59 1009.35 1009.15 1008.99 1008.87 1008.79 1008.71 1008.63 1008.55 1008.47 1008.43 1008.39 1008.31 1008.15 1007.99 1007.87 1007.71 1007.63 1007.47 1007.27 1006.99 1006.83 1006.71 1006.63 1006.59 1006.55 1006.43 1006.35 1006.27 1006.15 1006.11 1006.03 1005.95 1005.87 1005.83 1005.71 1005.71 1005.67 1005.63 1005.59 1005.55 1005.51 1005.55 1005.55 1005.59 1005.67 1005.71 1005.87 1006.07 1006.23 1006.31 1006.39 1006.47 1006.59 1006.67
1012.91 1012.71 1012.43 1012.19 1011.99 1011.71 1011.43 1011.15 1010.91 1010.71 1010.47 1010.27 1009.99 1009.79 1009.59 1009.35 1009.11 1008.87 1008.71 1008.67 1008.63 1008.55 1008.47 1008.43 1008.43 1008.35 1008.27 1008.15 1007.99 1007.83 1007.71 1007.59 1007.43 1007.19 1006.99 1006.87 1006.83 1006.79 1006.71 1006.63 1006.55 1006.43 1006.31 1006.23 1006.15 1006.07 1005.99 1005.87 1005.83 1005.79 1005.71 1005.63 1005.59 1005.59 1005.59 1005.67 1005.71 1005.71 1005.79 1005.87 1005.95 1006.11 1006.31 1006.43 1006.55 1006.63 1006.71 1006.83 1006.87
1013.03 1012.79 1012.55 1012.31 1012.11 1011.83 1011.55 1011.27 1010.99 1010.79 1010.55 1010.31 1010.07 1009.87 1009.63 1009.43 1009.15 1008.87 1008.67 1008.59 1008.59 1008.51 1008.47 1008.47 1008.43 1008.39 1008.27 1008.15 1007.99 1007.87 1007.71 1007.59 1007.39 1007.15 1006.99 1006.99 1006.95 1006.87 1006.79 1006.67 1006.59 1006.47 1006.43 1006.31 1006.23 1006.15 1006.07 1005.95 1005.87 1005.83 1005.79 1005.71 1005.71 1005.71 1005.75 1005.87 1005.95 1005.99 1006.03 1006.11 1006.19 1006.39 1006.59 1006.71 1006.87 1006.95 1006.99 1007.03 1007.11
1013.15 1012.91 1012.71 1012.47 1012.23 1011.99 1011.71 1011.43 1011.15 1010.95 1010.71 1010.47 1010.27 1010.03 1009.83 1009.59 1009.31 1009.03 1008.83 1008.67 1008.59 1008.55 1008.51 1008.47 1008.43 1008.35 1008.27 1008.15 1007.99 1007.87 1007.75 1007.59 1007.43 1007.23 1007.11 1007.03 1006.99 1006.91 1006.83 1006.71 1006.63 1006.59 1006.51 1006.43 1006.39 1006.31 1006.15 1005.99 1005.95 1005.91 1005.95 1005.99 1006.03 1006.07 1006.15 1006.15 1006.23 1006.31 1006.35 1006.43 1006.59 1006.71 1006.87 1007.03 1007.15 1007.23 1007.27 1007.27 1007.39
1013.27 1013.07 1012.87 1012.63 1012.39 1012.15 1011.87 1011.63 1011.39 1011.15 1010.95 1010.71 1010.51 1010.31 1010.03 1009.83 1009.59 1009.35 1009.11 1008.91 1008.71 1008.63 1008.59 1008.55 1008.43 1008.35 1008.27 1008.15 1008.07 1007.95 1007.79 1007.67 1007.51 1007.35 1007.23 1007.15 1007.11 1006.99 1006.91 1006.79 1006.71 1006.63 1006.59 1006.55 1006.47 1006.39 1006.31 1006.23 1006.27 1006.31 1006.31 1006.39 1006.47 1006.51 1006.51 1006.55 1006.59 1006.67 1006.75 1006.87 1006.99 1007.15 1007.27 1007.43 1007.47 1007.55 1007.59 1007.59 1007.67
1013.43 1013.23 1012.99 1012.79 1012.59 1012.31 1012.11 1011.87 1011.63 1011.43 1011.23 1010.99 1010.79 1010.59 1010.31 1010.11 1009.87 1009.67 1009.43 1009.19 1008.99 1008.87 1008.71 1008.59 1008.51 1008.43 1008.31 1008.19 1008.11 1007.99 1007.87 1007.79 1007.67 1007.55 1007.43 1007.39 1007.27 1007.15 1007.03 1006.91 1006.87 1006.83 1006.79 1006.75 1006.71 1006.67 1006.63 1006.67 1006.71 1006.75 1006.79 1006.83 1006.87 1006.87 1006.91 1006.99 1007.03 1007.15 1007.23 1007.31 1007.43 1007.59 1007.71 1007.75 1007.83 1007.87 1007.87 1007.91 1007.95
1013.63 1013.43 1013.19 1012.99 1012.75 1012.55 1012.35 1012.15 1011.91 1011.71 1011.51 1011.31 1011.07 1010.87 1010.63 1010.43 1010.19 1009.99 1009.79 1009.59 1009.39 1009.19 1009.03 1008.87 1008.71 1008.59 1008.47 1008.35 1008.27 1008.19 1008.11 1008.03 1007.95 1007.87 1007.83 1007.75 1007.63 1007.51 1007.39 1007.27 1007.27 1007.23 1007.19 1007.15 1007.11 1007.11 1007.15 1007.15 1007.19 1007.23 1007.23 1007.23 1007.27 1007.27 1007.35 1007.43 1007.51 1007.59 1007.71 1007.79 1007.87 1007.99 1008.07 1008.11 1008.15 1008.15 1008.19 1008.23 1008.31
1013.83 1013.63 1013.43 1013.19 1012.99 1012.75 1012.59 1012.35 1012.15 1011.99 1011.79 1011.59 1011.39 1011.15 1010.95 1010.71 1010.55 1010.31 1010.15 1009.99 1009.83 1009.63 1009.43 1009.23 1009.07 1008.91 1008.83 1008.71 1008.63 1008.55 1008.47 1008.43 1008.39 1008.31 1008.23 1008.19 1008.07 1007.95 1007.87 1007.79 1007.75 1007.71 1007.63 1007.59 1007.59 1007.59 1007.63 1007.67 1007.71 1007.67 1007.59 1007.59 1007.67 1007.71 1007.79 1007.87 1007.99 1008.07 1008.15 1008.27 1008.31 1008.39 1008.43 1008.47 1008.51 1008.51 1008.55 1008.59 1008.67
1014.03 1013.83 1013.63 1013.43 1013.23 1012.99 1012.79 1012.59 1012.43 1012.27 1012.11 1011.91 1011.71 1011.47 1011.27 1011.07 1010.87 1010.67 1010.47 1010.31 1010.15 1009.99 1009.87 1009.67 1009.51 1009.35 1009.27 1009.15 1009.07 1008.99 1008.95 1008.87 1008.79 1008.71 1008.59 1008.59 1008.43 1008.35 1008.31 1008.23 1008.15 1008.15 1008.11 1008.11 1008.11 1008.11 1008.11 1008.15 1008.11 1008.03 1007.99 1007.99 1008.07 1008.15 1008.23 1008.31 1008.39 1008.51 1008.59 1008.67 1008.71 1008.79 1008.83 1008.87 1008.87 1008.87 1008.87 1008.95 1008.99
1014.27 1014.07 1013.87 1013.71 1013.51 1013.27 1013.11 1012.91 1012.71 1012.55 1012.39 1012.19 1011.99 1011.75 1011.59 1011.43 1011.19 1010.99 1010.87 1010.71 1010.55 1010.39 1010.23 1010.07 1009.91 1009.79 1009.71 1009.59 1009.51 1009.43 1009.35 1009.23 1009.15 1009.03 1008.95 1008.87 1008.75 1008.71 1008.67 1008.63 1008.59 1008.59 1008.59 1008.59 1008.59 1008.59 1008.59 1008.59 1008.51 1008.43 1008.43 1008.43 1008.51 1008.59 1008.63 1008.71 1008.79 1008.87 1008.99 1009.07 1009.15 1009.15 1009.19 1009.19 1009.23 1009.23 1009.23 1009.27 1009.31
1014.51 1014.31 1014.15 1013.99 1013.79 1013.59 1013.43 1013.23 1012.99 1012.83 1012.67 1012.43 1012.27 1012.07 1011.91 1011.75 1011.55 1011.39 1011.27 1011.15 1010.95 1010.75 1010.59 1010.47 1010.31 1010.23 1010.15 1009.99 1009.87 1009.83 1009.71 1009.59 1009.43 1009.35 1009.27 1009.19 1009.15 1009.11 1009.07 1009.03 1008.99 1008.99 1008.99 1009.03 1009.07 1009.11 1009.03 1008.99 1008.95 1008.87 1008.87 1008.87 1008.91 1008.99 1009.03 1009.11 1009.15 1009.23 1009.27 1009.39 1009.47 1009.51 1009.55 1009.59 1009.55 1009.55 1009.59 1009.63 1009.67
1014.75 1014.59 1014.43 1014.23 1014.03 1013.87 1013.67 1013.47 1013.27 1013.11 1012.91 1012.75 1012.59 1012.43 1012.23 1012.11 1011.95 1011.79 1011.67 1011.47 1011.27 1011.15 1010.99 1010.91 1010.79 1010.67 1010.59 1010.43 1010.31 1010.19 1010.07 1009.91 1009.79 1009.71 1009.63 1009.59 1009.51 1009.43 1009.43 1009.39 1009.35 1009.35 1009.43 1009.47 1009.55 1009.51 1009.43 1009.43 1009.35 1009.27 1009.27 1009.31 1009.39 1009.43 1009.43 1009.47 1009.55 1009.59 1009.59 1009.71 1009.75 1009.83 1009.87 1009.91 1009.87 1009.91 1009.95 1009.99 1009.99
1014.99 1014.83 1014.67 1014.51 1014.31 1014.15 1013.95 1013.75 1013.55 1013.35 1013.19 1013.03 1012.91 1012.71 1012.59 1012.43 1012.31 1012.15 1011.99 1011.87 1011.71 1011.59 1011.43 1011.35 1011.27 1011.15 1011.03 1010.87 1010.71 1010.59 1010.43 1010.31 1010.15 1010.11 1010.03 1009.95 1009.87 1009.83 1009.75 1009.71 1009.71 1009.75 1009.83 1009.91 1009.95 1009.95 1009.87 1009.83 1009.75 1009.71 1009.71 1009.75 1009.83 1009.87 1009.87 1009.87 1009.87 1009.87 1009.91 1009.99 1010.03 1010.11 1010.15 1010.19 1010.19 1010.19 1010.23 1010.27 1010.27
1015.23 1015.07 1014.91 1014.75 1014.59 1014.43 1014.19 1013.99 1013.83 1013.63 1013.47 1013.35 1013.23 1013.07 1012.91 1012.75 1012.63 1012.47 1012.31 1012.15 1012.07 1011.99 1011.87 1011.79 1011.71 1011.59 1011.43 1011.27 1011.15 1010.99 1010.83 1010.71 1010.59 1010.51 1010.43 1010.31 1010.27 1010.19 1010.15 1010.11 1010.11 1010.15 1010.27 1010.31 1010.35 1010.31 1010.27 1010.19 1010.19 1010.15 1010.19 1010.23 1010.23 1010.27 1010.31 1010.31 1010.31 1010.31 1010.31 1010.31 1010.39 1010.43 1010.51 1010.55 1010.55 1010.51 1010.51 1010.51 1010.51
1015.43 1015.27 1015.15 1014.99 1014.83 1014.63 1014.43 1014.23 1014.11 1013.95 1013.83 1013.71 1013.55 1013.43 1013.27 1013.11 1012.95 1012.83 1012.67 1012.55 1012.43 1012.35 1012.31 1012.19 1012.11 1011.99 1011.87 1011.71 1011.55 1011.39 1011.27 1011.15 1011.07 1010.99 1010.87 1010.75 1010.67 1010.59 1010.55 1010.55 1010.59 1010.63 1010.71 1010.71 1010.71 1010.59 1010.59 1010.59 1010.59 1010.63 1010.63 1010.63 1010.67 1010.71 1010.71 1010.71 1010.71 1010.71 1010.71 1010.75 1010.83 1010.87 1010.91 1010.91 1010.91 1010.91 1010.91 1010.91 1010.87
1015.59 1015.43 1015.35 1015.23 1015.07 1014.87 1014.71 1014.51 1014.39 1014.31 1014.15 1013.99 1013.87 1013.71 1013.59 1013.43 1013.31 1013.15 1013.03 1012.91 1012.87 1012.75 1012.63 1012.55 1012.43 1012.35 1012.27 1012.15 1011.99 1011.87 1011.71 1011.63 1011.55 1011.43 1011.31 1011.27 1011.15 1011.07 1010.99 1011.03 1011.03 1011.11 1011.15 1011.15 1011.07 1010.99 1010.99 1010.99 1011.03 1011.03 1011.07 1011.11 1011.11 1011.15 1011.15 1011.19 1011.23 1011.23 1011.27 1011.27 1011.27 1011.31 1011.35 1011.39 1011.43 1011.43 1011.43 1011.43 1011.43
1015.75 1015.67 1015.59 1015.43 1015.27 1015.15 1014.99 1014.87 1014.71 1014.59 1014.43 1014.31 1014.15 1014.03 1013.91 1013.83 1013.63 1013.51 1013.43 1013.31 1013.23 1013.11 1012.99 1012.91 1012.83 1012.75 1012.63 1012.55 1012.39 1012.27 1012.19 1012.11 1012.03 1011.95 1011.87 1011.75 1011.67 1011.59 1011.59 1011.55 1011.59 1011.59 1011.59 1011.59 1011.47 1011.43 1011.43 1011.43 1011.47 1011.51 1011.55 1011.55 1011.59 1011.59 1011.63 1011.71 1011.71 1011.71 1011.71 1011.75 1011.79 1011.79 1011.79 1011.83 1011.91 1011.95 1011.95 1011.95 1011.95
1015.95 1015.87 1015.75 1015.59 1015.51 1015.39 1015.27 1015.15 1014.99 1014.87 1014.71 1014.63 1014.51 1014.43 1014.31 1014.11 1013.99 1013.83 1013.71 1013.67 1013.59 1013.43 1013.35 1013.31 1013.27 1013.15 1012.99 1012.87 1012.79 1012.71 1012.63 1012.59 1012.51 1012.43 1012.31 1012.23 1012.15 1012.11 1012.07 1012.03 1012.07 1012.07 1012.03 1011.99 1011.91 1011.87 1011.87 1011.87 1011.91 1011.91 1011.95 1011.99 1011.99 1012.03 1012.15 1012.15 1012.19 1012.19 1012.23 1012.31 1012.31 1012.31 1012.31 1012.35 1012.43 1012.43 1012.47 1012.51 1012.43
1016.15 1016.07 1015.95 1015.87 1015.75 1015.63 1015.51 1015.43 1015.27 1015.15 1015.11 1014.99 1014.87 1014.71 1014.55 1014.39 1014.27 1014.15 1014.11 1013.99 1013.87 1013.79 1013.75 1013.75 1013.67 1013.51 1013.39 1013.31 1013.23 1013.15 1013.03 1012.99 1012.91 1012.87 1012.79 1012.71 1012.63 1012.59 1012.55 1012.55 1012.59 1012.59 1012.51 1012.43 1012.39 1012.35 1012.31 1012.35 1012.35 1012.39 1012.35 1012.39 1012.43 1012.51 1012.55 1012.59 1012.59 1012.63 1012.71 1012.79 1012.79 1012.83 1012.87 1012.87 1012.95 1012.99 1012.99 1012.99 1012.99
1016.39 1016.31 1016.19 1016.07 1015.99 1015.87 1015.79 1015.71 1015.59 1015.51 1015.43 1015.27 1015.15 1014.95 1014.79 1014.67 1014.55 1014.47 1014.43 1014.31 1014.31 1014.31 1014.31 1014.19 1013.99 1013.87 1013.75 1013.71 1013.63 1013.55 1013.47 1013.43 1013.39 1013.27 1013.19 1013.11 1013.03 1013.03 1013.03 1013.03 1013.03 1013.03 1012.99 1012.87 1012.83 1012.83 1012.83 1012.83 1012.83 1012.83 1012.83 1012.83 1012.87 1012.91 1012.99 1012.99 1013.03 1013.07 1013.15 1013.27 1013.31 1013.35 1013.35 1013.39 1013.39 1013.43 1013.43 1013.43 1013.39
1016.59 1016.47 1016.39 1016.31 1016.19 1016.15 1016.07 1015.99 1015.87 1015.79 1015.67 1015.51 1015.39 1015.23 1015.07 1014.99 1014.91 1014.87 1014.87 1014.79 1014.75 1014.71 1014.59 1014.43 1014.31 1014.19 1014.15 1014.07 1013.99 1013.95 1013.91 1013.87 1013.79 1013.71 1013.63 1013.59 1013.55 1013.55 1013.51 1013.51 1013.51 1013.51 1013.47 1013.43 1013.35 1013.35 1013.35 1013.35 1013.35 1013.31 1013.27 1013.27 1013.27 1013.35 1013.39 1013.43 1013.43 1013.51 1013.59 1013.67 1013.71 1013.71 1013.75 1013.75 1013.75 1013.75 1013.75 1013.71 1013.71
1016.83 1016.71 1016.59 1016.51 1016.43 1016.39 1016.31 1016.23 1016.15 1015.99 1015.87 1015.79 1015.63 1015.51 1015.39 1015.35 1015.31 1015.31 1015.27 1015.19 1015.11 1014.99 1014.87 1014.71 1014.59 1014.55 1014.51 1014.43 1014.43 1014.35 1014.31 1014.27 1014.23 1014.15 1014.07 1013.99 1013.99 1013.99 1013.95 1013.95 1013.99 1013.99 1013.99 1013.87 1013.87 1013.87 1013.83 1013.83 1013.83 1013.79 1013.75 1013.71 1013.75 1013.79 1013.79 1013.79 1013.79 1013.87 1013.91 1013.99 1013.99 1013.99 1013.99 1013.99 1013.99 1013.99 1013.99 1013.95 1013.91
1017.03 1016.91 1016.83 1016.75 1016.71 1016.63 1016.59 1016.47 1016.39 1016.27 1016.15 1015.99 1015.87 1015.79 1015.75 1015.71 1015.71 1015.63 1015.55 1015.47 1015.39 1015.27 1015.15 1015.07 1014.99 1014.95 1014.95 1014.91 1014.87 1014.79 1014.71 1014.71 1014.63 1014.59 1014.51 1014.47 1014.39 1014.31 1014.31 1014.31 1014.35 1014.43 1014.43 1014.35 1014.31 1014.31 1014.31 1014.31 1014.31 1014.27 1014.19 1014.15 1014.15 1014.15 1014.15 1014.15 1014.11 1014.15 1014.15 1014.15 1014.19 1014.15 1014.15 1014.15 1014.15 1014.11 1014.07 1014.03 1014.03
1017.27 1017.15 1017.07 1016.99 1016.95 1016.87 1016.79 1016.71 1016.59 1016.47 1016.35 1016.23 1016.15 1016.15 1016.07 1016.03 1015.95 1015.91 1015.87 1015.83 1015.71 1015.63 1015.59 1015.51 1015.47 1015.43 1015.39 1015.31 1015.27 1015.19 1015.15 1015.11 1015.07 1014.99 1014.91 1014.87 1014.79 1014.71 1014.63 1014.67 1014.79 1014.87 1014.83 1014.75 1014.71 1014.75 1014.75 1014.71 1014.71 1014.63 1014.59 1014.51 1014.51 1014.47 1014.43 1014.35 1014.31 1014.31 1014.31 1014.31 1014.31 1014.31 1014.31 1014.31 1014.27 1014.23 1014.23 1014.19 1014.15
1017.47 1017.43 1017.31 1017.27 1017.19 1017.15 1016.99 1016.91 1016.87 1016.71 1016.59 1016.55 1016.47 1016.43 1016.43 1016.35 1016.31 1016.31 1016.31 1016.27 1016.15 1016.03 1015.99 1015.95 1015.87 1015.83 1015.71 1015.67 1015.59 1015.55 1015.47 1015.43 1015.43 1015.35 1015.31 1015.23 1015.15 1014.99 1014.99 1015.07 1015.15 1015.19 1015.15 1015.15 1015.15 1015.11 1015.11 1015.07 1014.99 1014.95 1014.87 1014.79 1014.75 1014.71 1014.63 1014.59 1014.55 1014.51 1014.51 1014.51 1014.47 1014.47 1014.47 1014.43 1014.43 1014.43 1014.43 1014.39 1014.39
1017.71 1017.63 1017.59 1017.51 1017.43 1017.35 1017.27 1017.15 1017.07 1016.95 1016.87 1016.79 1016.79 1016.75 1016.71 1016.71 1016.71 1016.71 1016.67 1016.59 1016.43 1016.35 1016.31 1016.31 1016.19 1016.11 1016.03 1015.99 1015.91 1015.87 1015.87 1015.79 1015.71 1015.71 1015.63 1015.59 1015.47 1015.39 1015.39 1015.43 1015.51 1015.51 1015.43 1015.43 1015.43 1015.39 1015.31 1015.31 1015.27 1015.19 1015.11 1015.03 1014.99 1014.91 1014.87 1014.79 1014.75 1014.71 1014.71 1014.71 1014.71 1014.71 1014.67 1014.63 1014.59 1014.59 1014.59 1014.59 1014.59
1017.99 1017.91 1017.83 1017.71 1017.63 1017.59 1017.47 1017.39 1017.27 1017.19 1017.15 1017.15 1017.11 1017.11 1017.07 1017.03 1017.03 1017.03 1016.99 1016.87 1016.75 1016.71 1016.67 1016.59 1016.51 1016.43 1016.43 1016.35 1016.31 1016.27 1016.23 1016.15 1016.07 1015.99 1015.95 1015.87 1015.79 1015.71 1015.71 1015.75 1015.83 1015.83 1015.75 1015.71 1015.63 1015.59 1015.59 1015.55 1015.51 1015.43 1015.35 1015.27 1015.23 1015.15 1015.07 1014.99 1014.99 1014.99 1014.95 1014.91 1014.95 1014.91 1014.87 1014.87 1014.79 1014.75 1014.71 1014.71 1014.75
1018.23 1018.15 1018.03 1017.95 1017.87 1017.79 1017.71 1017.63 1017.55 1017.47 1017.47 1017.47 1017.47 1017.43 1017.43 1017.39 1017.35 1017.35 1017.31 1017.15 1017.07 1016.99 1016.95 1016.87 1016.83 1016.83 1016.83 1016.75 1016.67 1016.59 1016.55 1016.43 1016.35 1016.27 1016.19 1016.15 1016.15 1016.11 1016.03 1016.03 1016.11 1016.11 1016.07 1015.99 1015.91 1015.87 1015.83 1015.79 1015.79 1015.71 1015.63 1015.59 1015.51 1015.43 1015.39 1015.31 1015.31 1015.27 1015.23 1015.23 1015.23 1015.27 1015.23 1015.15 1015.07 1014.99 1014.91 1014.91 1014.87
1018.47 1018.39 1018.31 1018.19 1018.11 1018.03 1017.99 1017.87 1017.83 1017.79 1017.79 1017.75 1017.71 1017.71 1017.71 1017.63 1017.63 1017.63 1017.59 1017.43 1017.35 1017.27 1017.23 1017.15 1017.15 1017.19 1017.15 1017.03 1016.95 1016.87 1016.79 1016.71 1016.67 1016.59 1016.51 1016.51 1016.51 1016.43 1016.35 1016.31 1016.39 1016.43 1016.39 1016.31 1016.23 1016.19 1016.15 1016.15 1016.07 1015.99 1015.95 1015.87 1015.79 1015.75 1015.71 1015.63 1015.63 1015.59 1015.59 1015.59 1015.59 1015.59 1015.55 1015.47 1015.39 1015.31 1015.27 1015.15 1015.11
1018.71 1018.59 1018.51 1018.43 1018.35 1018.31 1018.23 1018.19 1018.15 1018.15 1018.11 1018.03 1017.99 1017.99 1017.95 1017.95 1017.91 1017.91 1017.87 1017.71 1017.67 1017.59 1017.47 1017.47 1017.47 1017.47 1017.43 1017.27 1017.15 1017.11 1017.03 1016.99 1016.99 1016.87 1016.87 1016.87 1016.87 1016.75 1016.71 1016.67 1016.71 1016.71 1016.67 1016.59 1016.55 1016.47 1016.43 1016.39 1016.31 1016.31 1016.27 1016.19 1016.15 1016.07 1015.99 1015.95 1015.91 1015.87 1015.87 1015.87 1015.87 1015.87 1015.87 1015.83 1015.75 1015.71 1015.63 1015.59 1015.43
1018.91 1018.83 1018.75 1018.71 1018.63 1018.59 1018.51 1018.47 1018.47 1018.43 1018.39 1018.31 1018.31 1018.31 1018.31 1018.27 1018.23 1018.15 1018.07 1017.99 1017.91 1017.87 1017.79 1017.79 1017.75 1017.71 1017.67 1017.59 1017.43 1017.39 1017.31 1017.27 1017.27 1017.27 1017.23 1017.19 1017.15 1017.11 1017.03 1016.99 1016.99 1016.99 1016.95 1016.87 1016.79 1016.71 1016.67 1016.59 1016.59 1016.55 1016.55 1016.51 1016.47 1016.39 1016.31 1016.27 1016.19 1016.19 1016.23 1016.27 1016.23 1016.19 1016.19 1016.15 1016.11 1016.07 1015.99 1015.99 1015.87
Wind_Speed
8 7 6 6 6 5 6 6 6 6 6 6 6 6 6 6 6 6 6 6 6 6 6 6 6 6 7 7 8 9 9 8 7 7 7 6 6 7 7 7 7 6 6 7 7 6 6 6 5 5 4 5 5 5 5 4 5 5 6 6 5 5 6 6 6 6 6 5 4
9 8 7 7 6 6 5 6 6 6 6 5 6 6 6 6 6 6 6 6 6 6 6 6 6 7 7 8 8 8 8 8 8 7 7 7 7 7 7 7 7 7 7 7 7 6 6 6 5 5 4 4 5 5 5 4 5 6 6 7 6 5 5 5 5 5 5 4 3
8 8 8 7 6 6 6 6 6 7 7 6 6 6 6 6 6 6 6 6 6 6 6 6 6 7 8 8 7 7 7 8 8 7 7 7 7 7 7 7 8 8 8 8 7 7 6 5 5 5 5 4 4 4 4 4 5 6 7 7 6 4 4 3 2 3 3 2 2
8 8 8 8 8 8 8 7 8 8 8 7 7 7 7 6 6 6 6 6 7 7 6 6 7 7 7 8 8 8 8 9 9 8 8 7 7 7 8 8 8 9 9 9 8 7 7 6 5 5 5 5 5 5 4 4 5 6 6 6 4 2 1 2 2 2 2 1 1
9 9 8 8 9 9 8 8 9 9 8 7 6 6 6 6 6 6 6 6 6 6 7 7 7 7 8 9 9 9 9 10 10 9 8 7 8 8 8 8 9 9 9 8 8 8 7 6 5 4 4 4 4 3 3 4 5 6 6 4 1 1 2 3 2 2 2 1 1
10 10 10 9 10 10 9 8 9 9 8 7 7 7 7 6 6 6 6 6 6 7 8 9 8 8 9 10 10 10 9 9 8 8 8 8 8 8 8 9 9 8 8 8 8 7 7 6 4 4 4 4 3 3 4 5 6 6 5 1 2 3 3 3 2 1 2 3 4
10 10 11 10 11 10 10 9 9 9 8 7 8 9 9 9 8 9 8 7 7 7 7 7 7 8 9 9 10 9 9 8 8 8 8 8 8 8 8 8 8 8 8 7 7 6 5 4 4 4 3 3 3 3 5 5 6 5 3 3 4 4 3 2 1 1 3 5 6
10 10 10 11 11 11 11 11 10 9 8 7 8 10 11 11 11 10 9 8 7 6 5 5 6 8 8 9 9 9 9 9 8 8 7 7 8 8 8 8 7 7 7 6 6 5 4 3 3 3 2 2 2 3 5 7 7 4 3 6 4 3 2 2 2 3 5 6 6
10 10 11 10 10 11 11 11 11 10 9 9 10 11 11 12 11 10 9 7 6 5 5 5 6 7 8 9 9 9 9 8 9 9 8 8 7 7 6 6 6 6 5 4 4 3 3 2 2 2 2 2 2 3 4 7 5 3 5 6 5 4 3 4 5 5 6 6 7
11 11 11 10 11 11 11 11 10 10 10 10 11 11 12 12 11 9 7 6 6 6 6 5 6 7 8 9 9 9 8 8 8 8 9 8 7 6 5 5 5 5 4 3 3 2 2 2 2 2 2 2 2 3 4 4 3 4 5 5 6 7 7 7 7 7 7 7 7
12 12 11 10 11 11 11 10 9 9 9 9 10 10 11 11 10 9 7 5 5 6 6 6 6 6 7 8 8 8 8 7 7 7 8 8 7 6 5 5 5 4 4 3 2 2 2 2 2 2 2 2 3 3 3 3 4 5 6 7 9 9 9 8 7 7 7 7 8
12 12 11 11 11 11 11 10 9 8 9 10 10 10 10 10 10 9 8 6 5 6 6 5 5 6 6 7 7 7 7 7 7 8 7 7 6 6 5 5 5 4 4 3 3 2 2 2 2 2 2 3 1 2 3 4 5 7 9 10 10 10 10 9 8 7 6 7 8
12 12 11 11 12 11 11 10 9 9 10 11 11 10 10 10 11 10 9 7 5 4 4 4 4 5 6 6 6 7 7 7 7 7 7 6 5 5 5 4 4 3 3 3 4 4 3 3 2 1 0 2 4 5 6 7 8 9 10 11 11 11 10 10 9 8 8 8 9
12 12 12 12 12 11 11 11 9 9 10 12 12 11 10 10 11 11 10 9 7 5 4 3 4 4 5 6 6 7 7 7 7 7 7 6 5 5 4 4 4 3 3 3 4 4 4 3 3 4 6 8 9 9 10 10 10 11 11 12 12 11 11 10 9 9 9 10 10
12 12 12 12 12 11 10 11 9 10 11 12 12 11 11 10 11 12 12 11 9 7 4 4 3 4 5 5 6 7 7 7 7 7 7 7 6 5 5 4 3 3 4 4 4 4 6 8 9 11 11 12 12 12 12 12 12 12 12 12 12 11 11 10 10 9 10 10 10
13 13 12 12 12 11 11 10 9 9 10 11 11 11 11 10 11 11 12 13 10 9 8 7 6 5 5 5 6 6 6 7 8 9 9 9 8 7 7 6 7 7 8 8 9 10 11 12 12 12 12 12 13 13 13 14 14 13 13 13 12 12 11 11 10 10 10 10 10
13 13 13 12 12 12 12 11 10 10 10 11 12 12 11 11 10 11 12 13 12 11 11 11 9 8 8 8 7 7 8 9 10 11 11 11 11 11 11 12 12 12 12 12 12 13 13 13 12 12 12 13 13 14 14 14 14 14 14 13 13 12 12 11 11 11 11 11 11
13 13 13 13 12 12 12 12 11 11 12 12 12 12 11 11 11 12 12 13 13 14 14 14 12 11 11 11 11 10 10 11 11 11 11 12 12 13 13 14 14 14 13 13 13 13 13 13 12 12 12 13 13 14 14 14 14 14 14 14 13 13 12 12 11 11 11 12 12
13 13 13 13 13 12 12 13 12 12 12 12 12 12 12 13 13 13 13 14 14 15 15 14 13 13 13 13 12 11 11 11 11 12 12 12 13 13 14 14 14 14 14 14 14 13 13 12 12 13 13 14 14 14 14 14 14 14 14 14 13 13 13 12 12 12 12 12 12
13 13 13 13 13 12 12 12 12 12 12 11 12 13 13 14 14 14 14 14 14 15 15 14 14 14 14 14 13 12 11 9 11 12 12 12 13 13 14 14 14 14 14 14 13 13 13 12 13 13 14 15 15 14 14 14 14 14 14 13 13 13 13 13 13 13 13 13 13
13 13 13 13 12 12 12 12 12 12 12 12 13 13 14 14 14 15 15 14 14 15 15 15 15 14 14 13 13 12 11 9 11 11 12 12 13 13 13 14 14 14 14 13 13 13 13 13 13 14 14 15 15 14 14 14 14 14 14 13 13 14 14 14 14 14 14 14 13
12 12 12 12 12 12 12 12 12 12 12 13 13 13 14 14 14 14 15 14 15 15 15 15 15 15 15 14 13 12 11 11 11 12 12 12 12 13 13 13 14 14 14 13 12 12 12 13 13 14 14 14 14 14 14 14 14 14 14 14 14 14 14 14 14 14 14 14 13
12 12 11 11 12 12 12 12 12 12 13 13 13 14 14 14 14 14 14 14 15 15 15 14 14 15 15 14 14 14 13 13 13 13 13 13 13 13 13 13 14 14 13 12 11 11 11 12 13 13 13 13 13 13 13 13 13 13 13 14 14 14 13 13 12 12 12 12 12
12 11 11 10 11 12 12 12 12 13 13 13 14 14 14 14 14 14 14 15 15 15 15 13 13 14 15 15 15 15 15 15 15 15 15 14 14 14 14 13 13 13 12 11 11 12 11 10 10 11 12 12 12 12 12 12 12 12 12 13 13 13 13 12 12 12 12 11 11
11 11 11 11 12 12 12 12 13 13 13 13 14 14 14 14 14 14 14 15 15 15 15 14 14 14 14 15 15 16 16 16 16 16 16 15 15 14 13 12 12 11 11 12 18 19 18 14 12 10 10 11 11 12 12 13 13 13 13 13 13 13 13 14 14 14 14 13 12
11 11 11 12 12 12 13 13 13 13 13 13 14 14 14 14 13 14 14 15 15 15 14 14 14 14 13 14 15 16 16 15 15 16 16 15 16 15 14 12 11 10 11 16 21 23 23 21 18 14 12 10 11 11 12 13 14 14 14 14 13 13 13 14 14 15 15 14 14
11 11 11 11 12 12 13 12 12 13 13 13 14 14 13 13 13 14 14 14 14 14 13 13 13 13 13 13 15 16 15 14 15 15 16 16 16 15 14 12 10 10 13 20 23 24 24 23 22 19 15 11 11 11 11 11 13 13 14 13 13 13 14 14 14 14 14 14 14
11 11 11 11 12 12 12 12 13 13 13 13 13 13 13 13 14 14 14 14 14 13 12 12 11 10 10 11 14 15 15 15 15 15 15 16 16 15 14 12 12 13 17 23 24 24 24 24 23 21 18 14 12 11 11 11 11 12 12 12 12 13 14 13 13 12 13 13 12
11 11 11 12 12 12 12 13 13 13 13 12 12 13 13 14 15 15 15 15 15 14 12 10 9 9 10 12 13 14 15 15 14 14 14 15 16 15 14 14 14 17 21 25 25 25 25 24 24 23 21 17 12 10 9 10 10 10 11 10 11 12 12 12 11 11 11 11 10
10 11 11 12 12 12 12 13 13 12 12 11 12 13 14 14 15 15 15 15 14 13 11 10 10 12 13 13 14 14 14 14 14 14 15 16 16 16 15 15 15 17 21 26 26 25 25 25 25 24 22 20 15 11 10 10 10 10 10 10 11 11 11 11 11 10 9 9 9
10 11 11 12 12 12 12 12 12 12 12 11 12 13 14 14 15 14 14 13 13 12 12 12 14 15 15 14 14 14 15 14 14 14 15 15 16 16 15 16 16 18 22 26 26 26 25 25 25 24 23 21 16 12 10 11 11 10 10 10 10 10 10 9 9 9 9 8 8
10 11 11 11 12 12 12 11 12 12 12 13 13 14 14 14 13 13 12 12 12 13 13 14 15 16 16 15 15 15 15 15 15 15 14 14 14 15 15 15 16 18 22 26 26 25 25 25 24 23 22 20 16 13 11 11 11 10 10 10 10 10 9 8 8 8 8 7 7
10 10 11 11 11 11 11 11 11 12 12 13 13 13 13 13 12 12 12 12 12 13 14 15 15 15 15 15 15 15 15 15 15 15 15 15 14 14 14 13 14 17 22 25 25 24 24 23 23 22 21 18 14 11 10 10 9 9 9 9 9 9 9 8 7 7 7 7 7
10 10 11 11 11 11 11 11 11 11 12 13 13 13 13 13 13 13 12 12 12 13 13 14 14 14 13 13 14 14 14 13 14 14 14 14 14 14 14 12 12 16 21 23 23 23 22 22 21 20 18 16 11 9 9 10 9 9 9 9 9 9 9 9 9 9 9 9 8
11 11 11 11 11 11 11 11 11 12 13 13 14 14 14 14 13 13 13 12 12 12 13 13 13 13 13 13 13 14 14 14 14 14 14 14 14 15 15 14 14 17 21 22 21 21 20 20 19 17 15 12 9 8 8 9 9 10 10 10 10 10 10 10 10 10 10 10 10
11 11 11 11 11 11 11 12 12 13 14 14 14 14 14 13 13 12 12 12 12 13 13 13 13 13 13 13 13 13 14 14 14 14 14 14 14 15 15 15 15 18 20 21 20 20 19 19 17 16 13 9 7 7 7 8 8 10 11 11 11 11 11 10 10 10 10 11 11
11 11 11 11 11 11 12 12 13 13 14 14 14 13 13 13 12 12 11 11 12 13 13 13 13 13 13 13 13 13 13 13 13 14 14 14 14 14 14 14 15 16 19 20 20 20 19 19 18 15 12 8 7 7 7 7 8 9 10 11 11 11 10 9 9 10 11 13 13
10 11 11 11 11 11 11 12 12 13 13 13 13 12 12 12 11 11 11 11 11 12 12 13 13 13 13 13 13 13 14 13 14 14 14 14 14 14 14 14 14 15 17 20 20 20 20 19 18 16 13 9 8 7 7 7 8 9 10 10 10 11 10 9 8 10 12 15 17
10 10 10 11 11 11 11 12 12 12 12 12 12 11 11 11 10 9 9 10 10 11 12 12 13 12 12 12 12 13 14 14 14 14 14 14 14 14 14 14 14 15 17 20 21 21 20 19 18 17 14 10 8 7 7 7 8 9 9 9 9 10 10 9 9 9 11 16 20
10 10 10 11 11 11 11 12 12 11 11 11 11 11 11 10 9 9 8 8 9 10 11 11 12 11 11 12 12 13 14 14 14 14 14 14 15 16 16 14 14 15 16 19 20 20 20 19 18 17 14 9 8 7 6 7 8 9 9 8 8 8 9 9 9 9 10 13 17
9 10 10 11 11 11 11 12 12 11 11 11 11 11 10 10 9 9 9 9 9 10 9 10 11 11 11 11 11 12 14 14 14 14 14 14 15 15 15 14 13 13 14 16 19 20 20 19 19 18 15 10 8 7 6 6 8 9 10 9 8 8 8 8 9 9 10 11 12
Wind_Direction
304 303 300 298 296 295 293 292 291 290 289 291 292 294 295 295 294 292 292 293 294 297 299 300 302 304 306 309 310 310 309 309 310 308 304 296 290 287 286 284 280 276 272 272 272 271 267 261 257 254 251 247 243 240 238 236 236 239 241 243 249 254 257 257 248 231 213 203 199
306 305 304 303 303 300 298 296 295 295 294 292 291 291 291 290 288 288 289 290 292 294 295 295 295 296 297 300 301 301 300 300 299 297 293 287 283 281 282 282 278 274 271 270 269 267 265 261 256 254 251 247 242 240 238 236 235 238 242 245 250 253 251 244 228 211 195 188 179
307 309 310 309 308 306 304 303 303 302 300 295 292 290 288 286 285 285 287 288 291 292 292 291 291 291 290 291 290 288 287 286 285 283 281 278 276 276 276 277 277 275 274 272 270 268 265 262 257 253 251 247 241 240 240 237 230 233 239 245 249 247 239 223 190 169 159 156 153
312 313 314 312 311 309 307 306 306 306 304 300 295 292 289 286 285 284 285 286 288 289 288 288 289 289 288 286 282 278 275 274 271 270 269 270 271 272 271 272 273 273 273 273 273 271 267 261 257 253 249 244 242 241 238 226 221 226 234 245 246 232 174 106 87 87 96 112 128
319 318 316 313 311 309 306 303 305 305 305 302 299 295 292 289 286 284 283 283 283 284 286 289 290 291 290 287 283 279 274 271 268 265 263 264 266 267 266 266 268 269 271 273 274 273 270 262 257 252 247 243 241 232 219 209 215 224 232 246 216 105 86 70 50 45 59 94 92
321 318 315 311 309 307 304 303 302 302 301 300 296 293 291 288 286 284 282 280 281 283 287 290 292 293 294 294 291 288 284 278 272 267 264 264 264 265 264 264 265 266 268 271 274 274 271 260 255 249 243 239 233 220 210 206 212 222 231 227 91 80 72 64 42 26 46 72 73
320 316 314 311 309 307 305 304 302 301 299 295 292 290 288 285 284 283 282 281 281 283 286 289 293 296 299 301 300 299 297 293 285 277 271 268 268 268 268 268 268 269 271 275 278 276 269 251 246 242 239 235 222 213 211 211 216 218 209 94 85 79 73 64 36 55 69 73 74
320 318 315 312 310 307 305 304 303 302 300 297 293 291 289 287 285 284 283 281 280 280 282 285 291 295 299 303 305 306 307 306 301 295 287 278 273 271 271 272 274 277 280 282 279 271 259 242 242 243 243 236 219 208 209 215 220 207 124 97 97 93 90 106 85 79 79 79 76
327 324 320 316 314 311 309 307 304 302 301 298 296 294 293 292 289 287 284 281 279 278 279 282 288 294 299 302 306 309 311 313 312 309 304 295 287 280 277 278 283 288 290 287 273 259 249 245 254 258 254 239 209 203 208 215 206 158 108 105 106 101 90 85 81 81 82 82 78
332 329 327 324 322 318 315 312 308 306 303 302 301 300 299 299 297 294 288 280 279 278 278 280 287 293 297 301 304 307 311 314 314 313 311 307 305 303 301 300 301 302 301 296 286 272 263 264 269 265 253 225 203 199 197 188 157 115 95 93 93 87 82 76 76 77 79 79 77
334 333 332 331 330 327 324 322 318 315 313 312 311 309 308 308 306 303 295 283 278 277 276 277 283 287 291 295 299 303 308 314 313 313 313 313 319 324 325 321 317 315 313 313 309 299 291 284 272 259 240 212 201 185 158 128 106 84 74 72 77 77 75 71 71 72 73 74 72
336 336 336 338 338 337 335 334 332 330 329 328 326 324 322 321 320 316 310 298 286 280 278 275 278 281 284 290 296 302 309 315 313 311 313 322 334 338 335 327 320 319 322 328 328 324 317 305 279 250 225 205 172 114 96 92 78 70 68 68 70 70 68 65 63 63 66 69 68
338 339 341 344 345 345 344 344 343 343 343 343 343 342 340 339 336 334 332 327 313 300 290 283 279 279 282 289 297 306 313 317 314 313 319 338 347 344 333 323 317 324 339 354 349 338 323 306 289 272 91 75 64 65 67 69 66 65 65 64 64 64 63 60 58 59 61 64 64
342 343 346 348 349 350 350 350 349 351 353 354 354 354 353 351 350 350 351 352 349 336 314 296 287 283 285 290 300 309 315 317 317 322 332 353 353 344 331 320 320 340 7 15 351 332 325 338 20 45 53 56 56 57 58 61 62 62 62 62 62 62 61 58 57 58 60 62 62
346 347 348 350 353 354 354 354 354 356 358 359 0 1 1 359 358 359 1 3 3 1 350 332 316 304 300 301 308 315 321 326 335 346 356 5 360 350 340 331 346 14 34 32 18 17 28 43 52 55 58 59 59 59 59 59 60 59 59 60 60 60 59 58 57 58 59 61 61
350 350 351 353 355 358 360 360 359 360 1 3 4 5 5 4 3 4 6 7 8 9 8 3 353 344 338 335 334 337 346 358 7 13 16 16 12 10 11 16 30 39 44 45 46 48 50 52 55 57 59 61 61 60 59 59 59 58 57 57 58 58 58 58 57 57 58 59 59
353 353 353 355 357 0 3 4 3 4 5 6 7 8 8 7 7 9 11 12 12 13 13 12 9 9 9 9 9 14 20 25 25 26 25 25 26 29 33 38 41 44 46 48 50 51 52 52 54 57 60 62 62 61 60 59 59 57 56 56 56 56 56 57 57 57 57 58 57
356 356 356 356 359 2 5 7 7 8 8 8 9 10 11 11 12 13 15 16 18 18 17 16 16 19 23 26 27 29 31 32 31 31 31 33 35 37 40 42 43 44 45 47 49 50 51 52 54 58 61 62 62 62 61 61 60 59 58 57 56 56 56 56 56 57 58 58 57
359 358 358 358 360 3 6 9 10 10 10 10 11 13 14 15 16 17 19 20 21 22 22 21 22 25 28 31 31 31 31 32 33 34 36 38 40 41 42 43 43 43 44 45 47 49 50 52 55 58 61 63 63 63 63 63 63 62 60 59 58 58 58 58 58 58 59 59 58
2 0 360 359 0 4 7 10 11 11 11 12 13 15 16 17 19 20 21 22 22 23 25 25 26 27 29 30 31 30 29 30 32 35 38 40 42 43 44 45 45 45 45 45 46 48 50 53 56 59 62 64 64 64 65 65 65 65 64 62 61 60 60 60 61 61 61 60 59
4 2 1 0 2 5 8 10 12 13 14 15 16 17 18 19 21 22 23 23 23 24 26 26 26 27 27 28 29 29 29 30 33 35 38 41 43 44 46 47 48 47 45 44 45 47 50 53 56 59 62 63 64 65 66 67 68 68 67 67 65 63 62 62 63 63 62 62 61
6 4 3 2 4 6 9 11 14 15 17 17 18 19 20 22 23 23 24 24 25 26 27 27 27 26 26 26 27 29 30 33 34 36 38 41 43 45 47 49 50 49 47 43 43 45 49 53 56 58 60 62 63 65 67 69 70 70 70 70 68 66 65 64 64 65 65 64 64
8 7 6 5 6 8 11 13 16 18 20 20 20 21 23 24 24 25 26 26 27 27 27 28 27 27 26 27 29 30 32 34 36 37 39 42 44 46 47 49 50 50 48 45 43 45 48 52 54 56 58 60 61 62 63 65 66 67 68 67 67 65 63 62 63 64 65 66 67
11 11 10 9 9 11 13 16 18 20 22 22 23 24 25 25 25 26 27 29 29 29 29 29 28 28 28 30 31 33 34 35 36 38 39 41 44 45 46 48 49 49 50 50 51 52 53 53 54 55 56 57 57 57 57 57 57 59 60 61 60 59 57 54 53 55 57 59 62
14 15 14 14 13 14 16 18 21 22 24 24 26 27 27 27 27 28 29 30 30 30 30 31 30 30 31 32 33 35 35 35 36 37 39 41 42 44 45 47 48 49 51 56 59 60 60 59 57 56 56 56 56 55 54 52 52 53 54 55 55 55 54 51 48 48 48 49 51
17 18 18 18 18 19 20 21 23 24 25 26 27 28 29 29 29 30 31 32 31 31 31 31 32 32 33 34 35 36 37 36 36 37 39 41 42 43 45 46 47 49 54 58 61 62 63 62 61 60 58 56 55 55 54 52 51 52 53 53 54 54 54 52 50 48 47 47 47
20 21 22 22 23 24 23 23 24 26 27 28 28 29 30 31 32 34 34 34 33 33 33 33 33 33 35 37 37 38 38 38 38 39 40 41 43 44 45 46 47 51 56 60 62 63 63 63 62 61 59 57 56 55 55 54 52 52 52 51 52 53 54 54 53 51 49 48 46
22 23 24 26 28 28 27 26 27 28 29 29 30 31 33 35 37 37 37 37 36 35 35 34 33 34 36 38 39 40 41 41 41 41 42 43 44 45 46 47 49 54 58 60 62 63 63 63 62 61 60 59 58 57 56 55 53 52 52 51 51 52 53 54 53 52 51 49 47
24 26 28 31 32 31 30 30 31 31 31 31 33 35 37 39 40 40 39 38 38 37 36 34 34 36 38 40 40 41 42 42 42 42 43 44 45 46 47 48 52 55 58 60 61 62 62 63 63 62 61 60 59 57 55 55 55 55 54 52 52 52 53 54 54 54 52 51 49
28 30 33 34 35 35 35 34 34 34 35 36 36 38 40 41 41 40 39 39 39 39 38 38 40 41 42 41 42 42 42 42 42 42 43 45 46 47 48 48 51 54 57 58 60 61 62 62 63 63 63 62 62 61 59 58 59 59 58 56 55 55 56 56 56 55 53 51 50
30 33 36 38 38 38 38 37 37 37 38 39 39 40 41 41 41 40 40 40 40 41 42 43 45 45 44 43 43 43 43 43 42 42 43 45 47 48 49 50 52 55 57 58 60 61 62 63 63 63 64 63 63 62 62 62 63 63 63 62 60 59 59 59 57 56 55 54 54
32 35 38 40 40 40 39 39 39 40 40 41 41 41 42 42 42 41 41 41 42 42 43 44 44 44 44 44 44 44 44 43 43 43 44 45 47 49 50 52 53 55 57 59 60 61 62 63 63 64 64 65 65 65 65 67 67 67 67 66 65 64 63 63 63 62 61 60 60
32 35 38 41 41 41 41 40 41 41 42 42 42 42 42 42 42 41 41 41 42 42 43 43 44 44 44 44 45 45 45 45 44 44 45 46 48 50 51 52 54 56 58 60 61 62 62 63 63 64 65 64 65 65 65 68 68 69 68 67 65 64 63 63 62 61 59 58 58
32 35 38 41 41 41 41 41 41 42 43 44 43 43 42 42 41 41 41 41 42 43 44 44 45 45 45 45 46 47 47 47 46 45 46 46 49 51 52 52 55 56 58 60 61 62 62 62 62 63 62 62 62 62 63 65 66 66 66 65 62 60 58 57 56 55 53 51 51
31 35 38 40 40 41 41 41 42 43 44 45 44 43 43 43 42 42 41 42 44 46 46 45 46 46 47 47 47 48 48 48 48 48 48 48 51 53 54 54 57 58 59 61 62 62 62 62 60 59 57 55 55 56 59 62 63 63 62 62 60 58 56 56 56 54 53 51 50
32 35 38 40 40 41 42 42 44 45 45 45 45 44 44 44 44 43 43 44 47 48 48 47 47 47 47 47 48 48 48 48 49 49 49 50 52 54 55 56 57 58 59 61 62 62 61 60 57 53 49 45 46 48 52 55 57 57 57 57 56 54 53 55 56 57 57 56 53
33 35 38 40 41 41 42 43 45 46 47 46 46 46 46 46 46 44 44 45 49 50 50 49 49 48 48 48 49 48 48 49 50 51 51 50 52 55 57 58 57 57 58 60 60 60 59 58 54 49 44 39 40 43 47 50 51 52 52 52 50 47 46 48 52 55 58 59 58
33 36 39 41 42 42 42 44 45 47 47 48 47 47 48 48 48 46 45 47 51 52 53 52 51 50 50 51 52 52 50 50 51 52 52 51 52 54 57 59 57 57 56 57 58 58 57 56 53 48 43 39 39 42 45 48 49 49 49 48 46 43 40 40 42 47 51 55 57
34 36 39 41 42 42 43 44 45 46 46 47 48 48 48 48 49 48 47 49 52 54 55 55 54 54 53 54 55 54 53 51 51 52 52 52 52 54 56 58 57 56 55 55 56 56 56 55 52 48 44 41 40 41 45 48 50 50 49 48 46 43 40 39 38 40 43 47 51
35 37 39 41 41 42 43 44 44 44 44 45 46 46 46 46 48 48 48 49 51 53 55 56 56 56 55 56 57 57 55 53 51 51 52 53 53 53 53 55 55 54 55 55 56 57 57 56 53 49 45 41 39 40 44 48 50 50 48 46 46 45 42 39 39 39 39 40 44
36 38 39 41 41 42 43 44 44 43 43 44 44 44 44 44 45 45 45 48 48 50 52 54 54 54 54 54 56 56 55 53 50 50 51 52 53 52 52 53 53 53 54 55 56 56 56 55 53 50 47 43 38 38 41 45 49 48 47 44 44 44 43 41 40 40 38 36 38